Year,Month,Day,Hour,Minute,Value (Times are PST for temperature in C)
2007,08,01,00,00,14.80
2007,08,01,00,01,14.80
2007,08,01,00,02,14.70
2007,08,01,00,03,14.70
2007,08,01,00,04,14.60
2007,08,01,00,05,14.60
2007,08,01,00,06,14.50
2007,08,01,00,07,14.50
2007,08,01,00,08,14.40
2007,08,01,00,09,14.40
2007,08,01,00,10,14.30
2007,08,01,00,11,14.30
2007,08,01,00,12,14.20
2007,08,01,00,13,14.20
2007,08,01,00,14,14.10
2007,08,01,00,15,14.00
2007,08,01,00,16,13.90
2007,08,01,00,17,13.90
2007,08,01,00,18,13.80
2007,08,01,00,19,13.80
2007,08,01,00,20,13.70
2007,08,01,00,21,13.70
2007,08,01,00,22,13.70
2007,08,01,00,23,13.70
2007,08,01,00,24,13.60
2007,08,01,00,25,13.60
2007,08,01,00,26,13.60
2007,08,01,00,27,13.60
2007,08,01,00,28,13.50
2007,08,01,00,29,13.50
2007,08,01,00,30,13.40
2007,08,01,00,31,13.40
2007,08,01,00,32,13.40
2007,08,01,00,33,13.30
2007,08,01,00,34,13.30
2007,08,01,00,35,13.30
2007,08,01,00,36,13.30
2007,08,01,00,37,13.30
2007,08,01,00,38,13.30
2007,08,01,00,39,13.20
2007,08,01,00,40,13.20
2007,08,01,00,41,13.20
2007,08,01,00,42,13.20
2007,08,01,00,43,13.20
2007,08,01,00,44,13.10
2007,08,01,00,45,13.10
2007,08,01,00,46,13.10
2007,08,01,00,47,13.10
2007,08,01,00,48,13.10
2007,08,01,00,49,13.10
2007,08,01,00,50,13.10
2007,08,01,00,51,13.00
2007,08,01,00,52,13.00
2007,08,01,00,53,13.00
2007,08,01,00,54,13.00
2007,08,01,00,55,12.90
2007,08,01,00,56,12.90
2007,08,01,00,57,12.90
2007,08,01,00,58,12.90
2007,08,01,00,59,12.90
2007,08,01,01,00,12.90
2007,08,01,01,01,12.90
2007,08,01,01,02,12.80
2007,08,01,01,03,12.80
2007,08,01,01,04,12.80
2007,08,01,01,05,12.80
2007,08,01,01,06,12.80
2007,08,01,01,07,12.80
2007,08,01,01,08,12.80
2007,08,01,01,09,12.80
2007,08,01,01,10,12.80
2007,08,01,01,11,12.70
2007,08,01,01,12,12.70
2007,08,01,01,13,12.70
2007,08,01,01,14,12.70
2007,08,01,01,15,12.70
2007,08,01,01,16,12.70
2007,08,01,01,17,12.60
2007,08,01,01,18,12.60
2007,08,01,01,19,12.60
2007,08,01,01,20,12.60
2007,08,01,01,21,12.60
2007,08,01,01,22,12.60
2007,08,01,01,23,12.60
2007,08,01,01,24,12.50
2007,08,01,01,25,12.50
2007,08,01,01,26,12.50
2007,08,01,01,27,12.50
2007,08,01,01,28,12.50
2007,08,01,01,29,12.50
2007,08,01,01,30,12.40
2007,08,01,01,31,12.40
2007,08,01,01,32,12.40
2007,08,01,01,33,12.40
2007,08,01,01,34,12.30
2007,08,01,01,35,12.30
2007,08,01,01,36,12.30
2007,08,01,01,37,12.30
2007,08,01,01,38,12.30
2007,08,01,01,39,12.30
2007,08,01,01,40,12.30
2007,08,01,01,41,12.30
2007,08,01,01,42,12.30
2007,08,01,01,43,12.30
2007,08,01,01,44,12.30
2007,08,01,01,45,12.30
2007,08,01,01,46,12.30
2007,08,01,01,47,12.20
2007,08,01,01,48,12.20
2007,08,01,01,49,12.30
2007,08,01,01,50,12.30
2007,08,01,01,51,12.20
2007,08,01,01,52,12.30
2007,08,01,01,53,12.30
2007,08,01,01,54,12.30
2007,08,01,01,55,12.30
2007,08,01,01,56,12.30
2007,08,01,01,57,12.20
2007,08,01,01,58,12.20
2007,08,01,01,59,12.20
2007,08,01,02,00,12.20
2007,08,01,02,01,12.20
2007,08,01,02,02,12.20
2007,08,01,02,03,12.20
2007,08,01,02,04,12.20
2007,08,01,02,05,12.20
2007,08,01,02,06,12.20
2007,08,01,02,07,12.20
2007,08,01,02,08,12.20
2007,08,01,02,09,12.10
2007,08,01,02,10,12.10
2007,08,01,02,11,12.10
2007,08,01,02,12,12.10
2007,08,01,02,13,12.10
2007,08,01,02,14,12.00
2007,08,01,02,15,12.00
2007,08,01,02,16,12.00
2007,08,01,02,17,12.00
2007,08,01,02,18,12.00
2007,08,01,02,19,12.00
2007,08,01,02,20,12.00
2007,08,01,02,21,12.00
2007,08,01,02,22,12.00
2007,08,01,02,23,12.00
2007,08,01,02,24,12.00
2007,08,01,02,25,12.00
2007,08,01,02,26,12.00
2007,08,01,02,27,11.90
2007,08,01,02,28,11.90
2007,08,01,02,29,11.90
2007,08,01,02,30,11.90
2007,08,01,02,31,11.90
2007,08,01,02,32,11.90
2007,08,01,02,33,11.80
2007,08,01,02,34,11.80
2007,08,01,02,35,11.80
2007,08,01,02,36,11.80
2007,08,01,02,37,11.80
2007,08,01,02,38,11.80
2007,08,01,02,39,11.80
2007,08,01,02,40,11.80
2007,08,01,02,41,11.80
2007,08,01,02,42,11.80
2007,08,01,02,43,11.80
2007,08,01,02,44,11.70
2007,08,01,02,45,11.70
2007,08,01,02,46,11.70
2007,08,01,02,47,11.70
2007,08,01,02,48,11.70
2007,08,01,02,49,11.70
2007,08,01,02,50,11.70
2007,08,01,02,51,11.70
2007,08,01,02,52,11.70
2007,08,01,02,53,11.60
2007,08,01,02,54,11.60
2007,08,01,02,55,11.60
2007,08,01,02,56,11.60
2007,08,01,02,57,11.60
2007,08,01,02,58,11.50
2007,08,01,02,59,11.50
2007,08,01,03,00,11.50
2007,08,01,03,01,11.50
2007,08,01,03,02,11.50
2007,08,01,03,03,11.50
2007,08,01,03,04,11.50
2007,08,01,03,05,11.40
2007,08,01,03,06,11.40
2007,08,01,03,07,11.40
2007,08,01,03,08,11.40
2007,08,01,03,09,11.50
2007,08,01,03,10,11.50
2007,08,01,03,11,11.50
2007,08,01,03,12,11.50
2007,08,01,03,13,11.40
2007,08,01,03,14,11.50
2007,08,01,03,15,11.50
2007,08,01,03,16,11.50
2007,08,01,03,17,11.50
2007,08,01,03,18,11.50
2007,08,01,03,19,11.50
2007,08,01,03,20,11.50
2007,08,01,03,21,11.40
2007,08,01,03,22,11.40
2007,08,01,03,23,11.40
2007,08,01,03,24,11.40
2007,08,01,03,25,11.40
2007,08,01,03,26,11.40
2007,08,01,03,27,11.40
2007,08,01,03,28,11.40
2007,08,01,03,29,11.40
2007,08,01,03,30,11.40
2007,08,01,03,31,11.40
2007,08,01,03,32,11.40
2007,08,01,03,33,11.40
2007,08,01,03,34,11.40
2007,08,01,03,35,11.40
2007,08,01,03,36,11.40
2007,08,01,03,37,11.40
2007,08,01,03,38,11.40
2007,08,01,03,39,11.40
2007,08,01,03,40,11.40
2007,08,01,03,41,11.40
2007,08,01,03,42,11.40
2007,08,01,03,43,11.40
2007,08,01,03,44,11.40
2007,08,01,03,45,11.40
2007,08,01,03,46,11.40
2007,08,01,03,47,11.40
2007,08,01,03,48,11.40
2007,08,01,03,49,11.40
2007,08,01,03,50,11.40
2007,08,01,03,51,11.40
2007,08,01,03,52,11.40
2007,08,01,03,53,11.40
2007,08,01,03,54,11.40
2007,08,01,03,55,11.40
2007,08,01,03,56,11.40
2007,08,01,03,57,11.30
2007,08,01,03,58,11.30
2007,08,01,03,59,11.30
2007,08,01,04,00,11.30
2007,08,01,04,01,11.30
2007,08,01,04,02,11.30
2007,08,01,04,03,11.30
2007,08,01,04,04,11.30
2007,08,01,04,05,11.30
2007,08,01,04,06,11.30
2007,08,01,04,07,11.30
2007,08,01,04,08,11.30
2007,08,01,04,09,11.30
2007,08,01,04,10,11.30
2007,08,01,04,11,11.30
2007,08,01,04,12,11.30
2007,08,01,04,13,11.30
2007,08,01,04,14,11.30
2007,08,01,04,15,11.20
2007,08,01,04,16,11.20
2007,08,01,04,17,11.20
2007,08,01,04,18,11.20
2007,08,01,04,19,11.20
2007,08,01,04,20,11.20
2007,08,01,04,21,11.20
2007,08,01,04,22,11.20
2007,08,01,04,23,11.20
2007,08,01,04,24,11.20
2007,08,01,04,25,11.20
2007,08,01,04,26,11.10
2007,08,01,04,27,11.10
2007,08,01,04,28,11.10
2007,08,01,04,29,11.10
2007,08,01,04,30,11.10
2007,08,01,04,31,11.10
2007,08,01,04,32,11.10
2007,08,01,04,33,11.10
2007,08,01,04,34,11.10
2007,08,01,04,35,11.10
2007,08,01,04,36,11.10
2007,08,01,04,37,11.10
2007,08,01,04,38,11.00
2007,08,01,04,39,11.00
2007,08,01,04,40,11.00
2007,08,01,04,41,11.00
2007,08,01,04,42,11.00
2007,08,01,04,43,11.00
2007,08,01,04,44,11.00
2007,08,01,04,45,11.00
2007,08,01,04,46,11.00
2007,08,01,04,47,11.00
2007,08,01,04,48,11.00
2007,08,01,04,49,11.00
2007,08,01,04,50,11.00
2007,08,01,04,51,11.10
2007,08,01,04,52,11.10
2007,08,01,04,53,11.10
2007,08,01,04,54,11.10
2007,08,01,04,55,11.10
2007,08,01,04,56,11.20
2007,08,01,04,57,11.20
2007,08,01,04,58,11.20
2007,08,01,04,59,11.20
2007,08,01,05,00,11.30
2007,08,01,05,01,11.30
2007,08,01,05,02,11.30
2007,08,01,05,03,11.30
2007,08,01,05,04,11.30
2007,08,01,05,05,11.30
2007,08,01,05,06,11.30
2007,08,01,05,07,11.40
2007,08,01,05,08,11.40
2007,08,01,05,09,11.50
2007,08,01,05,10,11.70
2007,08,01,05,11,11.70
2007,08,01,05,12,11.80
2007,08,01,05,13,11.80
2007,08,01,05,14,11.80
2007,08,01,05,15,11.80
2007,08,01,05,16,11.80
2007,08,01,05,17,11.80
2007,08,01,05,18,11.80
2007,08,01,05,19,11.80
2007,08,01,05,20,11.80
2007,08,01,05,21,11.80
2007,08,01,05,22,11.80
2007,08,01,05,23,11.80
2007,08,01,05,24,11.80
2007,08,01,05,25,11.80
2007,08,01,05,26,11.70
2007,08,01,05,27,11.70
2007,08,01,05,28,11.70
2007,08,01,05,29,11.70
2007,08,01,05,30,11.70
2007,08,01,05,31,11.60
2007,08,01,05,32,11.60
2007,08,01,05,33,11.60
2007,08,01,05,34,11.60
2007,08,01,05,35,11.60
2007,08,01,05,36,11.60
2007,08,01,05,37,11.60
2007,08,01,05,38,11.60
2007,08,01,05,39,11.50
2007,08,01,05,40,11.50
2007,08,01,05,41,11.50
2007,08,01,05,42,11.40
2007,08,01,05,43,11.40
2007,08,01,05,44,11.40
2007,08,01,05,45,11.40
2007,08,01,05,46,11.40
2007,08,01,05,47,11.40
2007,08,01,05,48,11.40
2007,08,01,05,49,11.40
2007,08,01,05,50,11.40
2007,08,01,05,51,11.40
2007,08,01,05,52,11.30
2007,08,01,05,53,11.30
2007,08,01,05,54,11.30
2007,08,01,05,55,11.30
2007,08,01,05,56,11.30
2007,08,01,05,57,11.20
2007,08,01,05,58,11.20
2007,08,01,05,59,11.20
2007,08,01,06,00,11.10
2007,08,01,06,01,11.10
2007,08,01,06,02,11.10
2007,08,01,06,03,11.10
2007,08,01,06,04,11.10
2007,08,01,06,05,11.10
2007,08,01,06,06,11.00
2007,08,01,06,07,11.00
2007,08,01,06,08,11.00
2007,08,01,06,09,11.00
2007,08,01,06,10,11.10
2007,08,01,06,11,11.00
2007,08,01,06,12,11.10
2007,08,01,06,13,11.00
2007,08,01,06,14,11.00
2007,08,01,06,15,11.00
2007,08,01,06,16,11.10
2007,08,01,06,17,11.10
2007,08,01,06,18,11.10
2007,08,01,06,19,11.10
2007,08,01,06,20,11.10
2007,08,01,06,21,11.10
2007,08,01,06,22,11.00
2007,08,01,06,23,11.00
2007,08,01,06,24,11.10
2007,08,01,06,25,11.10
2007,08,01,06,26,11.10
2007,08,01,06,27,11.20
2007,08,01,06,28,11.20
2007,08,01,06,29,11.20
2007,08,01,06,30,11.20
2007,08,01,06,31,11.30
2007,08,01,06,32,11.30
2007,08,01,06,33,11.30
2007,08,01,06,34,11.30
2007,08,01,06,35,11.40
2007,08,01,06,36,11.40
2007,08,01,06,37,11.40
2007,08,01,06,38,11.40
2007,08,01,06,39,11.50
2007,08,01,06,40,11.50
2007,08,01,06,41,11.60
2007,08,01,06,42,11.60
2007,08,01,06,43,11.60
2007,08,01,06,44,11.60
2007,08,01,06,45,11.70
2007,08,01,06,46,11.80
2007,08,01,06,47,11.80
2007,08,01,06,48,12.00
2007,08,01,06,49,12.00
2007,08,01,06,50,12.10
2007,08,01,06,51,12.20
2007,08,01,06,52,12.30
2007,08,01,06,53,12.40
2007,08,01,06,54,12.50
2007,08,01,06,55,12.60
2007,08,01,06,56,12.70
2007,08,01,06,57,12.70
2007,08,01,06,58,12.80
2007,08,01,06,59,12.80
2007,08,01,07,00,12.90
2007,08,01,07,01,12.90
2007,08,01,07,02,13.00
2007,08,01,07,03,13.00
2007,08,01,07,04,13.10
2007,08,01,07,05,13.20
2007,08,01,07,06,13.30
2007,08,01,07,07,13.30
2007,08,01,07,08,13.50
2007,08,01,07,09,13.60
2007,08,01,07,10,13.80
2007,08,01,07,11,14.00
2007,08,01,07,12,14.10
2007,08,01,07,13,14.30
2007,08,01,07,14,14.40
2007,08,01,07,15,14.60
2007,08,01,07,16,14.70
2007,08,01,07,17,14.90
2007,08,01,07,18,15.00
2007,08,01,07,19,15.00
2007,08,01,07,20,15.00
2007,08,01,07,21,15.10
2007,08,01,07,22,15.30
2007,08,01,07,23,15.40
2007,08,01,07,24,15.50
2007,08,01,07,25,15.50
2007,08,01,07,26,15.60
2007,08,01,07,27,15.60
2007,08,01,07,28,15.70
2007,08,01,07,29,15.70
2007,08,01,07,30,15.70
2007,08,01,07,31,15.80
2007,08,01,07,32,15.80
2007,08,01,07,33,15.80
2007,08,01,07,34,15.90
2007,08,01,07,35,15.90
2007,08,01,07,36,16.00
2007,08,01,07,37,16.10
2007,08,01,07,38,16.10
2007,08,01,07,39,16.20
2007,08,01,07,40,16.30
2007,08,01,07,41,16.30
2007,08,01,07,42,16.40
2007,08,01,07,43,16.50
2007,08,01,07,44,16.50
2007,08,01,07,45,16.60
2007,08,01,07,46,16.70
2007,08,01,07,47,16.70
2007,08,01,07,48,16.80
2007,08,01,07,49,16.90
2007,08,01,07,50,16.90
2007,08,01,07,51,17.00
2007,08,01,07,52,17.10
2007,08,01,07,53,17.20
2007,08,01,07,54,17.30
2007,08,01,07,55,17.30
2007,08,01,07,56,17.40
2007,08,01,07,57,17.40
2007,08,01,07,58,17.50
2007,08,01,07,59,17.60
2007,08,01,08,00,17.70
2007,08,01,08,01,17.80
2007,08,01,08,02,17.90
2007,08,01,08,03,17.90
2007,08,01,08,04,17.90
2007,08,01,08,05,18.00
2007,08,01,08,06,18.10
2007,08,01,08,07,18.10
2007,08,01,08,08,18.10
2007,08,01,08,09,18.20
2007,08,01,08,10,18.20
2007,08,01,08,11,18.20
2007,08,01,08,12,18.30
2007,08,01,08,13,18.30
2007,08,01,08,14,18.30
2007,08,01,08,15,18.30
2007,08,01,08,16,18.40
2007,08,01,08,17,18.40
2007,08,01,08,18,18.40
2007,08,01,08,19,18.40
2007,08,01,08,20,18.40
2007,08,01,08,21,18.40
2007,08,01,08,22,18.50
2007,08,01,08,23,18.50
2007,08,01,08,24,18.50
2007,08,01,08,25,18.50
2007,08,01,08,26,18.50
2007,08,01,08,27,18.50
2007,08,01,08,28,18.50
2007,08,01,08,29,18.60
2007,08,01,08,30,18.60
2007,08,01,08,31,18.70
2007,08,01,08,32,18.70
2007,08,01,08,33,18.80
2007,08,01,08,34,18.80
2007,08,01,08,35,18.80
2007,08,01,08,36,18.90
2007,08,01,08,37,18.90
2007,08,01,08,38,18.90
2007,08,01,08,39,19.00
2007,08,01,08,40,19.00
2007,08,01,08,41,19.00
2007,08,01,08,42,19.00
2007,08,01,08,43,19.00
2007,08,01,08,44,19.10
2007,08,01,08,45,19.10
2007,08,01,08,46,19.10
2007,08,01,08,47,19.10
2007,08,01,08,48,19.20
2007,08,01,08,49,19.20
2007,08,01,08,50,19.20
2007,08,01,08,51,19.20
2007,08,01,08,52,19.10
2007,08,01,08,53,19.20
2007,08,01,08,54,19.20
2007,08,01,08,55,19.20
2007,08,01,08,56,19.20
2007,08,01,08,57,19.20
2007,08,01,08,58,19.10
2007,08,01,08,59,19.10
2007,08,01,09,00,19.00
2007,08,01,09,01,19.00
2007,08,01,09,02,19.00
2007,08,01,09,03,19.00
2007,08,01,09,04,19.00
2007,08,01,09,05,19.00
2007,08,01,09,06,19.10
2007,08,01,09,07,19.10
2007,08,01,09,08,19.20
2007,08,01,09,09,19.30
2007,08,01,09,10,19.30
2007,08,01,09,11,19.40
2007,08,01,09,12,19.30
2007,08,01,09,13,19.30
2007,08,01,09,14,19.30
2007,08,01,09,15,19.30
2007,08,01,09,16,19.30
2007,08,01,09,17,19.30
2007,08,01,09,18,19.30
2007,08,01,09,19,19.40
2007,08,01,09,20,19.40
2007,08,01,09,21,19.50
2007,08,01,09,22,19.50
2007,08,01,09,23,19.50
2007,08,01,09,24,19.40
2007,08,01,09,25,19.40
2007,08,01,09,26,19.40
2007,08,01,09,27,19.40
2007,08,01,09,28,19.40
2007,08,01,09,29,19.40
2007,08,01,09,30,19.40
2007,08,01,09,31,19.50
2007,08,01,09,32,19.50
2007,08,01,09,33,19.50
2007,08,01,09,34,19.40
2007,08,01,09,35,19.30
2007,08,01,09,36,19.40
2007,08,01,09,37,19.30
2007,08,01,09,38,19.40
2007,08,01,09,39,19.40
2007,08,01,09,40,19.40
2007,08,01,09,41,19.40
2007,08,01,09,42,19.40
2007,08,01,09,43,19.40
2007,08,01,09,44,19.40
2007,08,01,09,45,19.50
2007,08,01,09,46,19.50
2007,08,01,09,47,19.40
2007,08,01,09,48,19.50
2007,08,01,09,49,19.50
2007,08,01,09,50,19.60
2007,08,01,09,51,19.60
2007,08,01,09,52,19.60
2007,08,01,09,53,19.70
2007,08,01,09,54,19.70
2007,08,01,09,55,19.80
2007,08,01,09,56,19.90
2007,08,01,09,57,19.90
2007,08,01,09,58,20.00
2007,08,01,09,59,19.90
2007,08,01,10,00,19.80
2007,08,01,10,01,19.70
2007,08,01,10,02,19.70
2007,08,01,10,03,19.70
2007,08,01,10,04,19.60
2007,08,01,10,05,19.60
2007,08,01,10,06,19.50
2007,08,01,10,07,19.50
2007,08,01,10,08,19.30
2007,08,01,10,09,19.30
2007,08,01,10,10,19.30
2007,08,01,10,11,19.30
2007,08,01,10,12,19.30
2007,08,01,10,13,19.30
2007,08,01,10,14,19.30
2007,08,01,10,15,19.30
2007,08,01,10,16,19.30
2007,08,01,10,17,19.30
2007,08,01,10,18,19.40
2007,08,01,10,19,19.40
2007,08,01,10,20,19.50
2007,08,01,10,21,19.70
2007,08,01,10,22,19.80
2007,08,01,10,23,19.70
2007,08,01,10,24,19.70
2007,08,01,10,25,19.70
2007,08,01,10,26,19.80
2007,08,01,10,27,19.90
2007,08,01,10,28,19.90
2007,08,01,10,29,20.00
2007,08,01,10,30,20.10
2007,08,01,10,31,20.10
2007,08,01,10,32,20.10
2007,08,01,10,33,20.10
2007,08,01,10,34,20.00
2007,08,01,10,35,20.00
2007,08,01,10,36,20.00
2007,08,01,10,37,20.00
2007,08,01,10,38,20.00
2007,08,01,10,39,20.00
2007,08,01,10,40,20.00
2007,08,01,10,41,19.90
2007,08,01,10,42,19.90
2007,08,01,10,43,19.90
2007,08,01,10,44,20.00
2007,08,01,10,45,20.00
2007,08,01,10,46,20.00
2007,08,01,10,47,20.00
2007,08,01,10,48,20.10
2007,08,01,10,49,20.10
2007,08,01,10,50,20.20
2007,08,01,10,51,20.10
2007,08,01,10,52,20.00
2007,08,01,10,53,20.00
2007,08,01,10,54,19.90
2007,08,01,10,55,19.90
2007,08,01,10,56,19.90
2007,08,01,10,57,19.80
2007,08,01,10,58,19.80
2007,08,01,10,59,19.80
2007,08,01,11,00,19.80
2007,08,01,11,01,19.80
2007,08,01,11,02,19.90
2007,08,01,11,03,20.00
2007,08,01,11,04,20.00
2007,08,01,11,05,19.90
2007,08,01,11,06,20.00
2007,08,01,11,07,20.00
2007,08,01,11,08,20.10
2007,08,01,11,09,20.10
2007,08,01,11,10,20.20
2007,08,01,11,11,20.30
2007,08,01,11,12,20.30
2007,08,01,11,13,20.30
2007,08,01,11,14,20.30
2007,08,01,11,15,20.30
2007,08,01,11,16,20.30
2007,08,01,11,17,20.30
2007,08,01,11,18,20.30
2007,08,01,11,19,20.30
2007,08,01,11,20,20.30
2007,08,01,11,21,20.30
2007,08,01,11,22,20.40
2007,08,01,11,23,20.50
2007,08,01,11,24,20.50
2007,08,01,11,25,20.60
2007,08,01,11,26,20.60
2007,08,01,11,27,20.60
2007,08,01,11,28,20.70
2007,08,01,11,29,20.70
2007,08,01,11,30,20.80
2007,08,01,11,31,20.80
2007,08,01,11,32,20.80
2007,08,01,11,33,20.80
2007,08,01,11,34,20.90
2007,08,01,11,35,20.90
2007,08,01,11,36,20.90
2007,08,01,11,37,20.90
2007,08,01,11,38,20.90
2007,08,01,11,39,20.80
2007,08,01,11,40,20.80
2007,08,01,11,41,20.80
2007,08,01,11,42,20.80
2007,08,01,11,43,20.80
2007,08,01,11,44,20.70
2007,08,01,11,45,20.80
2007,08,01,11,46,20.80
2007,08,01,11,47,20.70
2007,08,01,11,48,20.60
2007,08,01,11,49,20.60
2007,08,01,11,50,20.70
2007,08,01,11,51,20.80
2007,08,01,11,52,20.90
2007,08,01,11,53,21.00
2007,08,01,11,54,21.10
2007,08,01,11,55,21.20
2007,08,01,11,56,21.20
2007,08,01,11,57,21.30
2007,08,01,11,58,21.40
2007,08,01,11,59,21.50
2007,08,01,12,00,21.60
2007,08,01,12,01,21.60
2007,08,01,12,02,21.50
2007,08,01,12,03,21.60
2007,08,01,12,04,21.60
2007,08,01,12,05,21.60
2007,08,01,12,06,21.60
2007,08,01,12,07,21.60
2007,08,01,12,08,21.70
2007,08,01,12,09,21.70
2007,08,01,12,10,21.70
2007,08,01,12,11,21.70
2007,08,01,12,12,21.80
2007,08,01,12,13,21.80
2007,08,01,12,14,21.80
2007,08,01,12,15,21.90
2007,08,01,12,16,21.90
2007,08,01,12,17,21.80
2007,08,01,12,18,21.80
2007,08,01,12,19,21.70
2007,08,01,12,20,21.50
2007,08,01,12,21,21.40
2007,08,01,12,22,21.30
2007,08,01,12,23,21.40
2007,08,01,12,24,21.40
2007,08,01,12,25,21.50
2007,08,01,12,26,21.60
2007,08,01,12,27,21.70
2007,08,01,12,28,21.70
2007,08,01,12,29,21.70
2007,08,01,12,30,21.80
2007,08,01,12,31,21.80
2007,08,01,12,32,21.80
2007,08,01,12,33,21.70
2007,08,01,12,34,21.70
2007,08,01,12,35,21.70
2007,08,01,12,36,21.70
2007,08,01,12,37,21.70
2007,08,01,12,38,21.70
2007,08,01,12,39,21.70
2007,08,01,12,40,21.70
2007,08,01,12,41,21.80
2007,08,01,12,42,21.80
2007,08,01,12,43,21.80
2007,08,01,12,44,21.80
2007,08,01,12,45,21.80
2007,08,01,12,46,21.80
2007,08,01,12,47,21.80
2007,08,01,12,48,21.90
2007,08,01,12,49,21.90
2007,08,01,12,50,22.00
2007,08,01,12,51,22.00
2007,08,01,12,52,22.10
2007,08,01,12,53,22.10
2007,08,01,12,54,22.10
2007,08,01,12,55,22.10
2007,08,01,12,56,22.10
2007,08,01,12,57,22.20
2007,08,01,12,58,22.20
2007,08,01,12,59,22.30
2007,08,01,13,00,22.30
2007,08,01,13,01,22.30
2007,08,01,13,02,22.30
2007,08,01,13,03,22.40
2007,08,01,13,04,22.60
2007,08,01,13,05,22.60
2007,08,01,13,06,22.70
2007,08,01,13,07,22.70
2007,08,01,13,08,22.80
2007,08,01,13,09,22.80
2007,08,01,13,10,22.80
2007,08,01,13,11,22.80
2007,08,01,13,12,22.80
2007,08,01,13,13,22.90
2007,08,01,13,14,23.00
2007,08,01,13,15,22.90
2007,08,01,13,16,22.90
2007,08,01,13,17,22.90
2007,08,01,13,18,22.90
2007,08,01,13,19,22.90
2007,08,01,13,20,23.00
2007,08,01,13,21,23.10
2007,08,01,13,22,23.10
2007,08,01,13,23,23.20
2007,08,01,13,24,23.20
2007,08,01,13,25,23.20
2007,08,01,13,26,23.20
2007,08,01,13,27,23.20
2007,08,01,13,28,23.20
2007,08,01,13,29,23.20
2007,08,01,13,30,23.20
2007,08,01,13,31,23.20
2007,08,01,13,32,23.30
2007,08,01,13,33,23.40
2007,08,01,13,34,23.40
2007,08,01,13,35,23.50
2007,08,01,13,36,23.60
2007,08,01,13,37,23.70
2007,08,01,13,38,23.60
2007,08,01,13,39,23.50
2007,08,01,13,40,23.40
2007,08,01,13,41,23.40
2007,08,01,13,42,23.40
2007,08,01,13,43,23.50
2007,08,01,13,44,23.60
2007,08,01,13,45,23.60
2007,08,01,13,46,23.60
2007,08,01,13,47,23.60
2007,08,01,13,48,23.50
2007,08,01,13,49,23.40
2007,08,01,13,50,23.40
2007,08,01,13,51,23.40
2007,08,01,13,52,23.40
2007,08,01,13,53,23.50
2007,08,01,13,54,23.40
2007,08,01,13,55,23.50
2007,08,01,13,56,23.50
2007,08,01,13,57,23.70
2007,08,01,13,58,23.80
2007,08,01,13,59,23.90
2007,08,01,14,00,24.00
2007,08,01,14,01,24.20
2007,08,01,14,02,24.20
2007,08,01,14,03,24.20
2007,08,01,14,04,24.20
2007,08,01,14,05,24.20
2007,08,01,14,06,24.20
2007,08,01,14,07,24.20
2007,08,01,14,08,24.20
2007,08,01,14,09,24.20
2007,08,01,14,10,24.20
2007,08,01,14,11,24.20
2007,08,01,14,12,24.20
2007,08,01,14,13,24.30
2007,08,01,14,14,24.30
2007,08,01,14,15,24.30
2007,08,01,14,16,24.30
2007,08,01,14,17,24.30
2007,08,01,14,18,24.30
2007,08,01,14,19,24.40
2007,08,01,14,20,24.50
2007,08,01,14,21,24.60
2007,08,01,14,22,24.80
2007,08,01,14,23,25.00
2007,08,01,14,24,25.20
2007,08,01,14,25,25.40
2007,08,01,14,26,25.50
2007,08,01,14,27,25.40
2007,08,01,14,28,25.40
2007,08,01,14,29,25.30
2007,08,01,14,30,25.20
2007,08,01,14,31,25.20
2007,08,01,14,32,25.20
2007,08,01,14,33,25.20
2007,08,01,14,34,25.10
2007,08,01,14,35,25.10
2007,08,01,14,36,25.20
2007,08,01,14,37,25.20
2007,08,01,14,38,25.20
2007,08,01,14,39,25.10
2007,08,01,14,40,25.00
2007,08,01,14,41,24.90
2007,08,01,14,42,24.90
2007,08,01,14,43,25.00
2007,08,01,14,44,25.10
2007,08,01,14,45,25.30
2007,08,01,14,46,25.40
2007,08,01,14,47,25.60
2007,08,01,14,48,25.50
2007,08,01,14,49,25.40
2007,08,01,14,50,25.40
2007,08,01,14,51,25.50
2007,08,01,14,52,25.60
2007,08,01,14,53,25.70
2007,08,01,14,54,25.70
2007,08,01,14,55,25.70
2007,08,01,14,56,25.80
2007,08,01,14,57,25.80
2007,08,01,14,58,25.90
2007,08,01,14,59,25.90
2007,08,01,15,00,25.90
2007,08,01,15,01,26.00
2007,08,01,15,02,26.00
2007,08,01,15,03,25.90
2007,08,01,15,04,25.80
2007,08,01,15,05,25.90
2007,08,01,15,06,25.80
2007,08,01,15,07,25.70
2007,08,01,15,08,25.60
2007,08,01,15,09,25.60
2007,08,01,15,10,25.70
2007,08,01,15,11,25.90
2007,08,01,15,12,25.90
2007,08,01,15,13,26.00
2007,08,01,15,14,25.90
2007,08,01,15,15,25.90
2007,08,01,15,16,25.90
2007,08,01,15,17,25.90
2007,08,01,15,18,25.90
2007,08,01,15,19,25.80
2007,08,01,15,20,25.90
2007,08,01,15,21,26.00
2007,08,01,15,22,26.30
2007,08,01,15,23,26.40
2007,08,01,15,24,26.40
2007,08,01,15,25,26.40
2007,08,01,15,26,26.50
2007,08,01,15,27,26.60
2007,08,01,15,28,26.70
2007,08,01,15,29,26.70
2007,08,01,15,30,26.80
2007,08,01,15,31,26.90
2007,08,01,15,32,26.90
2007,08,01,15,33,27.00
2007,08,01,15,34,26.90
2007,08,01,15,35,26.90
2007,08,01,15,36,27.00
2007,08,01,15,37,27.10
2007,08,01,15,38,27.20
2007,08,01,15,39,27.20
2007,08,01,15,40,27.30
2007,08,01,15,41,27.40
2007,08,01,15,42,27.40
2007,08,01,15,43,27.40
2007,08,01,15,44,27.40
2007,08,01,15,45,27.40
2007,08,01,15,46,27.40
2007,08,01,15,47,27.30
2007,08,01,15,48,27.20
2007,08,01,15,49,27.10
2007,08,01,15,50,27.00
2007,08,01,15,51,26.90
2007,08,01,15,52,26.90
2007,08,01,15,53,26.90
2007,08,01,15,54,26.90
2007,08,01,15,55,26.80
2007,08,01,15,56,26.60
2007,08,01,15,57,26.50
2007,08,01,15,58,26.60
2007,08,01,15,59,26.70
2007,08,01,16,00,26.80
2007,08,01,16,01,26.90
2007,08,01,16,02,26.90
2007,08,01,16,03,26.90
2007,08,01,16,04,26.90
2007,08,01,16,05,26.70
2007,08,01,16,06,26.60
2007,08,01,16,07,26.60
2007,08,01,16,08,26.60
2007,08,01,16,09,26.60
2007,08,01,16,10,26.60
2007,08,01,16,11,26.70
2007,08,01,16,12,26.80
2007,08,01,16,13,27.00
2007,08,01,16,14,27.20
2007,08,01,16,15,27.20
2007,08,01,16,16,27.10
2007,08,01,16,17,27.00
2007,08,01,16,18,26.90
2007,08,01,16,19,26.70
2007,08,01,16,20,26.60
2007,08,01,16,21,26.60
2007,08,01,16,22,26.60
2007,08,01,16,23,26.70
2007,08,01,16,24,26.60
2007,08,01,16,25,26.40
2007,08,01,16,26,26.30
2007,08,01,16,27,26.30
2007,08,01,16,28,26.30
2007,08,01,16,29,26.40
2007,08,01,16,30,26.50
2007,08,01,16,31,26.60
2007,08,01,16,32,26.50
2007,08,01,16,33,26.40
2007,08,01,16,34,26.20
2007,08,01,16,35,26.20
2007,08,01,16,36,26.20
2007,08,01,16,37,26.10
2007,08,01,16,38,26.10
2007,08,01,16,39,26.00
2007,08,01,16,40,26.00
2007,08,01,16,41,26.10
2007,08,01,16,42,26.20
2007,08,01,16,43,26.40
2007,08,01,16,44,26.60
2007,08,01,16,45,26.70
2007,08,01,16,46,26.80
2007,08,01,16,47,26.80
2007,08,01,16,48,26.80
2007,08,01,16,49,26.80
2007,08,01,16,50,26.80
2007,08,01,16,51,26.80
2007,08,01,16,52,26.60
2007,08,01,16,53,26.50
2007,08,01,16,54,26.60
2007,08,01,16,55,26.60
2007,08,01,16,56,26.60
2007,08,01,16,57,26.70
2007,08,01,16,58,26.70
2007,08,01,16,59,26.70
2007,08,01,17,00,26.70
2007,08,01,17,01,26.60
2007,08,01,17,02,26.60
2007,08,01,17,03,26.50
2007,08,01,17,04,26.40
2007,08,01,17,05,26.50
2007,08,01,17,06,26.40
2007,08,01,17,07,26.40
2007,08,01,17,08,26.30
2007,08,01,17,09,26.40
2007,08,01,17,10,26.50
2007,08,01,17,11,26.60
2007,08,01,17,12,26.70
2007,08,01,17,13,26.80
2007,08,01,17,14,26.90
2007,08,01,17,15,26.90
2007,08,01,17,16,26.90
2007,08,01,17,17,26.80
2007,08,01,17,18,26.80
2007,08,01,17,19,26.70